CAPE
45 27 13 11 0 0 0 0 3 18 43 106 201 304 198 247 369 489 563 419 216 101 56 49 81 107 91
61 43 16 3 0 3 1 0 2 27 60 103 89 122 141 166 127 193 328 384 174 87 29 6 24 12 32
40 35 9 5 5 11 9 9 18 22 32 45 45 80 82 43 46 195 128 116 136 37 3 14 4 7 18
22 48 27 4 49 31 34 0 21 20 42 59 64 71 67 61 54 84 84 67 108 121 32 22 40 24 39
1 33 23 29 27 5 8 0 3 34 44 21 7 15 45 25 17 17 29 34 43 85 73 69 77 57 52
2 23 1 1 24 26 14 0 0 0 131 4 0 0 34 18 63 45 35 37 53 31 50 56 61 64 151
1 11 7 1 10 18 8 38 16 32 4 0 0 0 46 34 30 33 65 3 3 7 4 1 11 43 72
11 14 13 30 2 8 8 22 7 22 62 1 29 43 21 2 16 3 0 0 0 1 0 0 0 0 3
2 2 4 1 0 1 3 9 2 1 0 0 0 24 0 11 8 1 0 0 0 0 0 0 0 0 18
0 1 7 0 0 3 0 0 2 0 0 0 12 5 0 0 6 15 1 0 8 9 4 3 0 0 0
8 12 5 13 6 9 21 17 0 3 1 0 1 1 0 16 12 3 4 1 8 15 2 3 3 3 0
0 0 0 14 11 9 2 15 5 8 0 7 22 12 1 3 2 2 0 0 2 0 0 1 1 1 1
0 0 5 6 4 8 11 5 7 5 7 4 4 5 0 0 0 0 0 0 0 0 0 14 0 0 0
0 0 2 7 4 0 0 3 0 3 2 2 6 1 0 0 0 0 0 0 0 0 0 0 0 0 0
0 0 0 0 0 0 0 0 0 0 0 0 2 0 0 0 0 0 0 0 0 0 0 0 0 0 0
0 0 0 0 0 0 0 0 0 0 0 0 0 0 0 0 0 0 0 0 0 0 0 0 0 0 0
0 0 0 0 0 0 0 0 0 0 0 0 0 0 0 0 0 0 0 0 0 0 0 0 0 0 0
CIN
-2 -10 -23 -10 -0 -0 -0 -0 -17 -46 -148 -62 -23 -5 -6 -16 -25 -14 -5 -5 -7 -4 -17 -28 -32 -22 -22
-0 -0 -6 -1 -9 -58 -66 -0 -44 -34 -37 -110 -86 -42 -47 -21 -12 -6 -0 -2 -3 -13 -23 -33 -8 -11 -34
-0 -0 -0 -24 -31 -26 -39 -33 -12 -14 -29 -11 -40 -26 -52 -23 -24 -0 -0 -0 -0 -25 -59 -47 -38 -33 -24
-0 -0 -1 -1 -2 -3 -0 -0 -22 -27 -12 -15 -9 -12 -10 -9 -43 -35 -24 -23 -11 -26 -47 -32 -14 -27 -15
-0 -6 -7 -11 -20 -9 -16 -0 -10 -0 -10 -0 -0 -4 -0 -6 -4 -7 -9 -27 -31 -22 -25 -36 -20 -23 -19
-0 -7 -1 -0 -26 -21 -0 -0 -0 -0 -1 -0 -0 -0 -0 -0 -0 -1 -12 -19 -20 -47 -47 -38 -41 -54 -4
-0 -1 -0 -2 -5 -18 -0 -0 -0 -1 -0 -0 -0 -0 -0 -0 -2 -2 -1 -63 -73 -29 -8 -3 -37 -36 -15
-0 -0 -0 -0 -2 -0 -0 -0 -1 -0 -0 -0 -0 -0 -1 -5 -1 -5 -0 -0 -0 -0 -0 -0 -0 -0 -58
-0 -0 -0 -0 -0 -15 -3 -0 -0 -0 -0 -0 -0 -0 -0 -1 -0 -0 -0 -0 -0 -0 -0 -0 -0 -2 -36
-0 -0 -6 -0 -0 -0 -0 -0 -0 -0 -0 -0 -0 -0 -0 -0 -0 -0 -1 -1 -0 -0 -0 -0 -0 -0 -0
-0 -0 -0 -0 -2 -0 -0 -0 -0 -0 -1 -0 -0 -0 -0 -0 -0 -0 -0 -0 -0 -0 -4 -0 -0 -0 -0
-0 -0 -0 -0 -0 -1 -0 -0 -3 -1 -0 -0 -0 -0 -0 -0 -0 -0 -0 -0 -0 -0 -0 -0 -0 -0 -0
-0 -0 -0 -0 -0 -0 -0 -0 -0 -0 -0 -0 -0 -0 -0 -0 -0 -0 -0 -0 -0 -0 -0 -0 -0 -0 -0
-0 -0 -0 -0 -0 -0 -0 -0 -0 -0 -0 -0 -0 -0 -0 -0 -0 -0 -0 -0 -0 -0 -0 -0 -0 -0 -0
-0 -0 -0 -0 -0 -0 -0 -0 -0 -0 -0 -0 -0 -0 -0 -0 -0 -0 -0 -0 -0 -0 -0 -0 -0 -0 -0
-0 -0 -0 -0 -0 -0 -0 -0 -0 -0 -0 -0 -0 -0 -0 -0 -0 -0 -0 -0 -0 -0 -0 -0 -0 -0 -0
-0 -0 -0 -0 -0 -0 -0 -0 -0 -0 -0 -0 -0 -0 -0 -0 -0 -0 -0 -0 -0 -0 -0 -0 -0 -0 -0
Wind_Speed
nan nan nan nan nan nan nan nan nan nan nan 42 43 44 46 46 50 50 51 50 52 52 nan nan nan 42 nan
nan nan nan nan nan nan nan nan nan nan nan 41 nan 44 41 44 43 48 52 53 49 nan nan nan nan nan nan
nan nan nan nan nan nan nan nan nan nan nan nan nan nan nan nan nan 43 42 47 48 nan nan nan nan nan nan
nan nan nan nan nan nan nan nan nan nan nan nan nan nan nan nan nan nan nan nan 40 38 nan nan nan nan nan
nan nan nan nan nan nan nan nan nan nan nan nan nan nan nan nan nan nan nan nan nan nan nan nan nan nan nan
nan nan nan nan nan nan nan nan nan nan 32 nan nan nan nan nan nan nan nan nan nan nan nan nan nan nan 30
nan nan nan nan nan nan nan nan nan nan nan nan nan nan nan nan nan nan nan nan nan nan nan nan nan nan nan
nan nan nan nan nan nan nan nan nan nan nan nan nan nan nan nan nan nan nan nan nan nan nan nan nan nan nan
nan nan nan nan nan nan nan nan nan nan nan nan nan nan nan nan nan nan nan nan nan nan nan nan nan nan nan
nan nan nan nan nan nan nan nan nan nan nan nan nan nan nan nan nan nan nan nan nan nan nan nan nan nan nan
nan nan nan nan nan nan nan nan nan nan nan nan nan nan nan nan nan nan nan nan nan nan nan nan nan nan nan
nan nan nan nan nan nan nan nan nan nan nan nan nan nan nan nan nan nan nan nan nan nan nan nan nan nan nan
nan nan nan nan nan nan nan nan nan nan nan nan nan nan nan nan nan nan nan nan nan nan nan nan nan nan nan
nan nan nan nan nan nan nan nan nan nan nan nan nan nan nan nan nan nan nan nan nan nan nan nan nan nan nan
nan nan nan nan nan nan nan nan nan nan nan nan nan nan nan nan nan nan nan nan nan nan nan nan nan nan nan
nan nan nan nan nan nan nan nan nan nan nan nan nan nan nan nan nan nan nan nan nan nan nan nan nan nan nan
nan nan nan nan nan nan nan nan nan nan nan nan nan nan nan nan nan nan nan nan nan nan nan nan nan nan nan
Wind_Direction
nan nan nan nan nan nan nan nan nan nan nan 271 268 267 269 269 268 269 271 271 269 266 nan nan nan 266 nan
nan nan nan nan nan nan nan nan nan nan nan 276 nan 267 265 267 267 266 263 265 266 nan nan nan nan nan nan
nan nan nan nan nan nan nan nan nan nan nan nan nan nan nan nan nan 261 264 263 263 nan nan nan nan nan nan
nan nan nan nan nan nan nan nan nan nan nan nan nan nan nan nan nan nan nan nan 263 263 nan nan nan nan nan
nan nan nan nan nan nan nan nan nan nan nan nan nan nan nan nan nan nan nan nan nan nan nan nan nan nan nan
nan nan nan nan nan nan nan nan nan nan 275 nan nan nan nan nan nan nan nan nan nan nan nan nan nan nan 260
nan nan nan nan nan nan nan nan nan nan nan nan nan nan nan nan nan nan nan nan nan nan nan nan nan nan nan
nan nan nan nan nan nan nan nan nan nan nan nan nan nan nan nan nan nan nan nan nan nan nan nan nan nan nan
nan nan nan nan nan nan nan nan nan nan nan nan nan nan nan nan nan nan nan nan nan nan nan nan nan nan nan
nan nan nan nan nan nan nan nan nan nan nan nan nan nan nan nan nan nan nan nan nan nan nan nan nan nan nan
nan nan nan nan nan nan nan nan nan nan nan nan nan nan nan nan nan nan nan nan nan nan nan nan nan nan nan
nan nan nan nan nan nan nan nan nan nan nan nan nan nan nan nan nan nan nan nan nan nan nan nan nan nan nan
nan nan nan nan nan nan nan nan nan nan nan nan nan nan nan nan nan nan nan nan nan nan nan nan nan nan nan
nan nan nan nan nan nan nan nan nan nan nan nan nan nan nan nan nan nan nan nan nan nan nan nan nan nan nan
nan nan nan nan nan nan nan nan nan nan nan nan nan nan nan nan nan nan nan nan nan nan nan nan nan nan nan
nan nan nan nan nan nan nan nan nan nan nan nan nan nan nan nan nan nan nan nan nan nan nan nan nan nan nan
nan nan nan nan nan nan nan nan nan nan nan nan nan nan nan nan nan nan nan nan nan nan nan nan nan nan nan